Flag for Switzerland Weather past 2 weeks in Riehen, Basel-Stadt, Switzerland

Now
71 °F

Overcast.


Feels Like: 76 °F
Forecast: 59 / 74 °F
Wind: 6 mph from West

Location: Bale-Mulhouse

Current Time: Jul 8, 2015 at 7:21:49 AM

Latest Report: Jul 8, 2015 at 6:00 AM


Visibility: 25 mi

Pressure: 29.90 "Hg

Humidity: 63%

Dew point: 58 °F

Location of RiehenLocation

Historic Weather in Riehen — Graph

°F

Riehen temperature yesterday

Maximum temperature yesterday: 97 °F (at 5:00 PM)
Minimum temperature yesterday: 65 °F (at 6:00 AM)
Average temperature yesterday: 80 °F

Past Weeks' High & Low Weather Summary

 TemperatureHumidityPressure
High98 °F (Jul 5, 6:00 PM)98% (Jun 24, 5:00 AM)30.23 "Hg (Jun 24, 5:00 AM)
Low45 °F (Jun 24, 6:00 AM)28% (Jun 26, 3:00 PM)29.73 "Hg (Jul 7, 5:00 PM)
Average74 °F63%30.08 "Hg
* Reported Jun 23 5:00 AM — Jul 8 5:00 AM, Riehen, Weather by CustomWeather, © 2015

Note: Actual official high and low records may vary slightly from our data, if they occured in-between our weather recording intervals... More about our weather records

Advertising

Riehen weather history for previous 24 hours

 ConditionsComfort  
Time TempWeatherWind HumidityBarometerVisibility
5:00 AM
Wed, Jul 8
71 °FOvercast.2 mph66%29.90 "Hg25 mi
4:00 AM71 °FOvercast.5 mph65%29.91 "Hg37 mi
3:00 AM71 °FOvercast.6 mph67%29.92 "Hg37 mi
2:00 AM72 °FPassing clouds.7 mph64%29.90 "Hg34 mi
1:00 AM73 °FOvercast.5 mph66%29.89 "Hg34 mi
12:00 AM72 °FPassing clouds.3 mph71%29.88 "Hg25 mi
11:00 PM
Tue, Jul 7
75 °FPassing clouds.7 mph70%29.87 "Hg25 mi
10:00 PM78 °FPassing clouds.16 mph63%29.83 "Hg25 mi
9:00 PM80 °FThunderstorms. Overcast.12 mph56%29.76 "Hg25 mi
8:00 PM85 °FOvercast.6 mph51%29.74 "Hg16 mi
7:00 PM90 °FOvercast.6 mph47%29.73 "Hg16 mi
6:00 PM92 °FOvercast.5 mph45%29.73 "Hg16 mi
5:00 PM97 °FScattered clouds.5 mph32%29.73 "Hg12 mi
3:00 PM95 °FPartly sunny.6 mph34%29.80 "Hg12 mi
2:00 PM94 °FPartly sunny.6 mph44%29.82 "Hg12 mi
1:00 PM92 °FPartly sunny.8 mph46%29.85 "Hg12 mi
12:00 PM90 °FPartly sunny.8 mph49%29.86 "Hg12 mi
11:00 AM87 °FPartly sunny.3 mph53%29.88 "Hg12 mi
10:00 AM85 °FPartly sunny.3 mph55%29.90 "Hg12 mi
9:00 AM79 °FPartly sunny.6 mph62%29.93 "Hg12 mi
8:00 AM74 °FPartly sunny.3 mph73%29.94 "Hg12 mi
7:00 AM67 °FPartly sunny.1 mph89%29.97 "Hg17 mi
Weather by CustomWeather, © 2015

See weather overviewHow to use our weather pages